CW0003 Weather Reports


Display with metric or nautical units.
time (UTC)temp
F
wind
direction
speed
MPH
gust
MPH
rain 1hr
in
rain 24hr
in
rain mn
in
humidity
%
barometer
mb
20210622043101 74 0.0 0.0 0.00 0.00 0.00 86 1001.3
20210622041545 74 0.0 0.0 0.00 0.00 0.00 86 1001.4
20210622040117 74 0.0 0.0 0.00 0.00 0.00 86 1001.6
20210622034555 75 0.0 0.0 0.00 0.00 0.00 86 1001.8
20210622033037 75 0.0 0.0 0.00 0.00 0.00 85 1001.9
20210622031722 75 0.0 0.0 0.00 0.00 0.00 85 1001.9
20210622030259 76 0.0 0.0 0.00 0.00 0.00 84 1001.7
20210622024645 76 0.0 0.0 0.00 0.00 0.00 84 1001.8
20210622023128 76 0.0 0.0 0.00 0.00 0.00 84 1001.8
20210622021553 76 0.0 0.0 0.00 0.00 0.00 84 1001.8
20210622020100 76 0.0 0.0 0.00 0.00 0.00 83 1001.5
20210622014550 76 0.0 0.0 0.00 0.00 0.00 83 1001.7
20210622013030 76 0.0 0.0 0.00 0.00 0.00 83 1001.0
20210622011506 77 0.0 0.0 0.00 0.00 0.00 82 1001.0
20210622010349 77 0.0 0.0 0.00 0.00 0.00 82 1000.7
20210622004722 77 0.0 0.0 0.00 0.00 0.00 82 1000.8
20210622003210 77 0.0 0.0 0.00 0.00 0.00 81 1000.9
20210622001608 77 0.0 0.0 0.00 0.00 0.00 81 1000.8
20210622000048 78 0.0 0.0 0.00 0.00 0.00 81 1000.7
20210621234536 78 167 3.0 10.0 0.00 0.00 0.00 80 1000.7
20210621233119 79 360 3.0 11.0 0.00 0.00 0.00 79 1000.7
20210621231527 80 156 6.0 17.0 0.00 0.00 0.00 79 1000.7
20210621230050 80 167 4.0 14.0 0.00 0.00 0.00 78 1000.6
20210621224520 80 159 4.0 14.0 0.00 0.00 0.00 77 1000.7
20210621223119 81 360 5.0 18.0 0.00 0.00 0.00 76 1000.8
20210621221502 81 146 5.0 16.0 0.00 0.00 0.00 75 1000.8
20210621220212 82 360 5.0 18.0 0.00 0.00 0.00 75 1000.7
20210621214637 82 154 4.0 17.0 0.00 0.00 0.00 74 1000.8
20210621213137 82 360 7.0 20.0 0.00 0.00 0.00 73 1000.9
20210621211628 82 164 5.0 20.0 0.00 0.00 0.00 77 1000.9
20210621210246 83 178 5.0 24.0 0.00 0.00 0.00 76 1001.1
20210621204615 83 130 5.0 17.0 0.00 0.00 0.00 76 1001.2
20210621203059 84 150 4.0 14.0 0.00 0.00 0.00 76 1001.5
20210621201617 85 169 2.0 12.0 0.00 0.00 0.00 72 1001.1
20210621200109 86 90 4.0 18.0 0.00 0.00 0.00 72 1001.5
20210621194552 87 360 3.0 16.0 0.00 0.00 0.00 72 1001.8
20210621193040 87 142 4.0 16.0 0.00 0.00 0.00 73 1001.7
20210621191530 86 360 5.0 19.0 0.00 0.00 0.00 74 1001.6
20210621190032 85 155 5.0 20.0 0.00 0.00 0.00 75 1001.9
20210621184529 84 360 6.0 17.0 0.00 0.00 0.00 79 1002.1
20210621183050 85 360 2.0 17.0 0.00 0.00 0.00 76 1002.2
20210621181649 86 134 6.0 18.0 0.00 0.00 0.00 72 1002.2
20210621180207 87 161 6.0 19.0 0.00 0.00 0.00 70 1002.2
20210621174725 87 360 8.0 18.0 0.00 0.00 0.00 70 1002.2
20210621173110 88 360 6.0 15.0 0.00 0.00 0.00 71 1002.7
20210621171610 87 360 7.0 17.0 0.00 0.00 0.00 76 1002.9
20210621170115 88 166 4.0 14.0 0.00 0.00 0.00 71 1003.1
20210621164607 88 126 3.0 15.0 0.00 0.00 0.00 75 1003.4
20210621163106 88 155 5.0 13.0 0.00 0.00 0.00 71 1003.6
20210621161611 88 360 5.0 15.0 0.00 0.00 0.00 71 1003.5
20210621160020 88 107 5.0 16.0 0.00 0.00 0.00 76 1003.7
20210621154607 87 117 7.0 19.0 0.00 0.00 0.00 72 1004.0
20210621153006 87 152 7.0 13.0 0.00 0.00 0.00 74 1004.2
20210621151804 87 360 3.0 13.0 0.00 0.00 0.00 77 1004.4
20210621150219 86 134 4.0 12.0 0.00 0.00 0.00 78 1004.6
20210621144656 85 157 5.0 10.0 0.00 0.00 0.00 77 1004.7
20210621143122 85 126 3.0 9.0 0.00 0.00 0.00 80 1005.0
20210621141602 84 165 5.0 12.0 0.00 0.00 0.00 80 1005.1
20210621140033 83 107 4.0 12.0 0.00 0.00 0.00 82 1005.4
20210621134536 82 360 2.0 10.0 0.00 0.00 0.00 80 1005.4
20210621133043 81 121 1.0 7.0 0.00 0.00 0.00 85 1005.5
20210621131545 80 135 3.0 10.0 0.00 0.00 0.00 82 1005.5
20210621130051 79 111 2.0 8.0 0.00 0.00 0.00 84 1005.6
20210621124535 78 178 3.0 10.0 0.00 0.00 0.00 85 1005.4
20210621123130 77 136 3.0 10.0 0.00 0.00 0.00 85 1005.7
20210621121707 76 160 1.0 8.0 0.00 0.00 0.00 88 1005.8
20210621120211 74 160 1.0 5.0 0.00 0.00 0.00 90 1006.2
20210621114751 73 113 3.0 8.0 0.00 0.00 0.00 93 1006.0
20210621113101 71 157 0.0 3.0 0.00 0.00 0.00 96 1006.2
20210621111614 70 144 0.0 5.0 0.00 0.00 0.00 96 1006.1
20210621110030 69 122 1.0 5.0 0.00 0.00 0.00 96 1006.1
20210621104600 68 126 0.0 5.0 0.00 0.00 0.00 95 1006.2
20210621103023 68 0.0 0.0 0.00 0.00 0.00 95 1006.2
20210621101533 67 0.0 0.0 0.00 0.00 0.00 94 1006.3
20210621100006 66 0.0 0.0 0.00 0.00 0.00 94 1006.3
20210621094723 66 0.0 0.0 0.00 0.00 0.00 94 1006.3
20210621093152 66 0.0 0.0 0.00 0.00 0.00 93 1006.3
20210621091625 66 0.0 0.0 0.00 0.00 0.00 93 1006.2
20210621090125 66 0.0 0.0 0.00 0.00 0.00 92 1005.9
20210621084553 66 0.0 0.0 0.00 0.00 0.00 91 1006.1
20210621083031 66 0.0 0.0 0.00 0.00 0.00 91 1005.9
20210621081530 66 0.0 0.0 0.00 0.00 0.00 91 1005.8
20210621080028 66 0.0 0.0 0.00 0.00 0.00 91 1005.8
20210621074533 66 0.0 0.0 0.00 0.00 0.00 91 1006.0
20210621073155 66 0.0 0.0 0.00 0.00 0.00 91 1005.9
20210621071639 67 0.0 0.0 0.00 0.00 0.00 91 1005.8
20210621070057 67 0.0 0.0 0.00 0.00 0.00 91 1005.9
20210621064639 67 0.0 0.0 0.00 0.00 0.00 91 1006.1
20210621063119 67 0.0 0.0 0.00 0.00 0.00 90 1006.2
20210621061544 67 0.0 0.0 0.00 0.00 0.00 89 1006.3
20210621060030 68 0.0 0.0 0.00 0.00 0.00 89 1006.4
20210621054532 68 0.0 0.0 0.00 0.00 0.00 88 1006.4
20210621053008 68 0.0 0.0 0.00 0.00 0.00 88 1006.7
20210621051634 69 0.0 0.0 0.00 0.00 0.00 87 1006.7
20210621050123 69 0.0 0.0 0.00 0.00 0.00 87 1006.7
20210621044606 70 0.0 0.0 0.00 0.00 0.00 86 1006.8